TELSTAR 14R

Last updated on Dec. 14, 2019, 4:30 a.m. UTC

1 37602U 11021A   19347.86455654 -.00000264  00000-0  00000-0 0  9993
2 37602   0.0169  14.4136 0001664 351.6033 324.4883  1.00272824 31982
UTC
Height (km)
Latitude
Longitude
Inclination
Orbital Period
UTC large
Height (km)
Speed (km/s)
/
Latitude / Longitude
Inclination (degrees)
Orbital Period (minutes)
Azimuth
Elevation
Range (km)
Doppler Factor
iOS Compass Heading
iOS Angle

Next 30 passes for location: Hong Kong

Rise time Rise Azimuth (degrees) Set time Set Azimuth (degrees) Duration Max altitude (degrees)

No matching passes for this satellites